This demonstration page uses our WeatherBlox Daily Observations layout. Learn more.

Left ArrowRight Arrow

Hourly Observations for March 27, 2015

Temp ( °F °C ) Dew Point ( °F °C ) Humidity (%) Winds ( mph kmh ) Pressure ( in mb ) Visibility ( mi km ) Precip ( " mm )
12:53 am 00:53 Clear 58 14.4 49 9.4 72 72 NNW 3 6 30.10 1019 10 16 0.00 0.00
1:53 am 01:53 Clear 58 14.4 49 9.4 72 72 NNW 3 6 30.09 1019 10 16 0.00 0.00
2:53 am 02:53 Clear 54 12.2 49 9.4 83 83 N 3 6 30.09 1019 10 16 0.00 0.00
3:53 am 03:53 Clear 54 12.2 48 8.9 80 80 Calm 30.08 1019 10 16 0.00 0.00
4:53 am 04:53 Clear 52 11.1 48 8.9 86 86 N 3 6 30.08 1019 10 16 0.00 0.00
5:53 am 05:53 Clear 52 11.1 47 8.3 83 83 Calm 30.08 1019 10 16 0.00 0.00
6:53 am 06:53 Clear 50 10 47 8.3 89 89 Calm 30.09 1019 10 16 0.00 0.00
7:53 am 07:53 Sunny 51 10.6 47 8.3 86 86 Calm 30.10 1019 10 16 0.00 0.00
8:53 am 08:53 Sunny 61 16.1 50 10 67 67 Calm 30.10 1019 10 16 0.00 0.00
9:53 am 09:53 Sunny 66 18.9 52 11.1 61 61 N 3 6 30.11 1020 10 16 0.00 0.00
10:53 am 10:53 Sunny 71 21.7 52 11.1 51 51 NE 3 6 30.11 1020 10 16 0.00 0.00
11:53 am 11:53 Sunny 74 23.3 51 10.6 45 45 Calm 30.09 1019 10 16 0.00 0.00
12:53 pm 12:53 Sunny 78 25.6 53 11.7 42 42 Calm 30.07 1018 10 16 0.00 0.00
1:53 pm 13:53 Sunny 79 26.1 53 11.7 41 41 SSE 5 7 30.05 1018 10 16 0.00 0.00
2:53 pm 14:53 Sunny 82 27.8 51 10.6 34 34 S 9 15 30.02 1017 10 16 0.00 0.00
3:53 pm 15:53 Sunny 83 28.3 50 10 32 32 S 15 24 30.00 1016 10 16 0.00 0.00
4:53 pm 16:53 Sunny 82 27.8 50 10 33 33 SW 10 17 29.99 1016 10 16 0.00 0.00
5:53 pm 17:53 Sunny 81 27.2 51 10.6 35 35 SSW 9 15 29.98 1015 10 16 0.00 0.00
6:53 pm 18:53 Sunny 79 26.1 52 11.1 39 39 SSW 5 7 29.98 1015 10 16 0.00 0.00
7:53 pm 19:53 Mostly Clear 73 22.8 54 12.2 51 51 SW 3 6 29.98 1015 10 16 0.00 0.00
8:53 pm 20:53 Cloudy 74 23.3 52 11.1 46 46 WNW 7 11 30.00 1016 10 16 0.00 0.00
9:53 pm 21:53 Clear 72 22.2 46 7.8 40 40 WNW 7 11 30.03 1017 10 16 0.00 0.00
10:53 pm 22:53 Clear 69 20.6 44 6.7 41 41 NW 9 15 30.07 1018 10 16 0.00 0.00
11:53 pm 23:53 Mostly Clear 67 19.4 39 3.9 36 36 NW 10 17 30.09 1019 10 16 0.00 0.00

Powered by AerisWeather